Location: Unspecified
(0.0000°N, 1.0000°E)
Time: 05:12:34
(UTC+01:00)

Amateur Radio Satellites - All Passes

Search period start: 28 January 2015 04:42
Search period end: 29 January 2015 04:42
Location: Unspecified, 0.0000°N, 1.0000°E

Satellite Date Start Highest point End Downlink Frequencies (MHz)
Time Altitude Azimuth
PCSat 28 Jan 04:42:42 04:47:50 44° 290° (WNW) 04:52:56 145.827
CUSAT 1 28 Jan 04:52:26 04:58:57 89° 274° (W) 05:07:01 437.405
HORYU 2 28 Jan 05:10:28 05:11:39 11° 280° (W) 05:12:28 437.375
SRMSAT 28 Jan 05:11:36 05:17:19 48° 200° (SSW) 05:23:00 437.500
O/OREOS (USA 219) 28 Jan 05:23:54 05:26:30 14° 253° (WSW) 05:28:48 437.305
JAS-2 28 Jan 05:33:12 05:39:36 77° 282° (WNW) 05:46:54 435.910
PHONESAT 2.4 28 Jan 05:53:11 05:54:47 13° 140° (SE) 05:56:32 2401.200-2431.200
AO-7 28 Jan 05:53:43 06:00:46 30° 285° (WNW) 06:07:32 29.400- 29.500
DANDE 28 Jan 05:58:46 06:04:18 27° 281° (W) 06:10:35 436.750
MOZHAYETS 4 28 Jan 06:09:13 06:13:07 26° 259° (W) 06:16:52
CUBESAT XI-V 28 Jan 06:21:14 06:23:44 15° 80° (E) 06:26:30 437.345
Cubesat XI-IV 28 Jan 06:23:01 06:27:51 36° 102° (ESE) 06:32:47 437.490
JUGNU 28 Jan 06:27:34 06:30:33 14° 191° (S) 06:33:25 437.505
RS-15 28 Jan 06:28:29 06:36:50 23° 295° (WNW) 06:44:19 29.354- 29.394
VERMONT LUNAR 28 Jan 06:40:24 06:43:49 61° 317° (NW) 06:47:14 437.305
CUTE-I 28 Jan 06:43:03 06:48:20 62° 102° (ESE) 06:53:40 437.470
SRMSAT 28 Jan 07:02:35 07:06:51 20° 195° (SSW) 07:11:02 437.500
PRISM 28 Jan 07:03:00 07:07:09 78° 258° (WSW) 07:11:16 437.425
STRAND 1 28 Jan 07:24:42 07:29:47 73° 79° (E) 07:34:52 437.568
PHONESAT 2.4 28 Jan 07:29:57 07:33:20 39° 317° (NW) 07:36:41 2401.200-2431.200
ISS 28 Jan 07:52:07 07:54:29 19° 53° (NE) 07:56:56 145.825
CUBESAT XI-V 28 Jan 07:57:17 08:01:06 25° 259° (W) 08:04:47 437.345
Cubesat XI-IV 28 Jan 08:04:46 08:07:52 15° 281° (W) 08:10:38 437.490
YUBILEINY 28 Jan 08:18:46 08:27:36 84° 87° (E) 08:36:29 435.215
CANX-2 28 Jan 08:36:09 08:38:27 15° 100° (E) 08:41:00 2200.000
AAUSAT CUBESAT 2 28 Jan 08:54:29 08:56:11 13° 100° (E) 08:58:10 437.432
SRMSAT 28 Jan 08:55:25 08:56:54 11° 186° (S) 08:58:19 437.500
CUTE 1.7 + AOD 2 28 Jan 08:59:16 09:02:53 29° 101° (E) 09:06:36 437.475
BRITE-PL 28 Jan 09:21:48 09:27:12 82° 282° (WNW) 09:32:14 437.365/2234.400
HO-68 28 Jan 09:23:27 09:30:35 77° 104° (ESE) 09:37:47 435.675
GOMX 1 28 Jan 09:24:55 09:30:00 70° 102° (ESE) 09:34:45 467.674
ISS 28 Jan 09:29:14 09:30:54 13° 232° (SW) 09:32:26 145.825
SEEDS 28 Jan 09:31:28 09:35:38 75° 102° (ESE) 09:39:49 437.485
CINEMA 3 28 Jan 09:42:22 09:46:27 34° 100° (E) 09:50:26 145.822/145.860
DOVE 4 28 Jan 09:44:06 09:48:59 81° 101° (E) 09:53:35 437.250
DX 1 28 Jan 09:49:46 09:52:35 18° 101° (E) 09:55:36 434.975-435.025
FUNcube-1 28 Jan 09:55:34 09:57:48 15° 99° (E) 10:00:15 145.935
COMPASS 1 28 Jan 10:00:17 10:04:18 49° 280° (W) 10:08:20 437.405
JUGNU 28 Jan 10:08:22 10:10:44 12° 171° (S) 10:13:11 437.505
UWE-3 28 Jan 10:10:44 10:14:34 32° 101° (E) 10:18:23 435.000/436.395/437.385
CANX-2 28 Jan 10:11:07 10:14:18 20° 280° (W) 10:17:22 2200.000
ANTELSAT 28 Jan 10:27:27 10:30:41 19° 79° (E) 10:34:08 437.575/2403.000
AAUSAT CUBESAT 2 28 Jan 10:28:25 10:31:45 23° 280° (W) 10:35:01 437.432
SO-50 28 Jan 10:29:24 10:33:33 40° 293° (WNW) 10:37:44 436.795
Oscar 11 28 Jan 10:30:43 10:34:56 57° 281° (WNW) 10:39:09 145.826/435.025
DELFI C3 28 Jan 10:31:01 10:35:02 72° 282° (WNW) 10:39:05 145.870
TIGRISAT 28 Jan 10:35:37 10:39:19 24° 79° (E) 10:43:10 435.000
VELOX 1 28 Jan 10:35:54 10:39:14 22° 101° (E) 10:42:43 145.980
CUTE 1.7 + AOD 2 28 Jan 10:38:22 10:38:45 10° 279° (W) 10:38:47 437.475
SRMSAT 28 Jan 10:46:32 10:47:14 10° 176° (S) 10:47:58 437.500
NANOSAT C BR1 28 Jan 11:02:51 11:06:26 27° 79° (E) 11:10:05 145.865
CUBEBUG 2 28 Jan 11:04:06 11:07:59 31° 281° (W) 11:11:44 437.445
UKube-1 28 Jan 11:05:30 11:09:33 37° 281° (WNW) 11:13:34 .
QB50P2 28 Jan 11:15:53 11:19:56 44° 79° (E) 11:24:01 145.880/145.840
ZACube-1 28 Jan 11:17:49 11:21:37 31° 281° (W) 11:25:19 437.345
50 SAT 28 Jan 11:20:20 11:24:19 90° 95° (E) 11:28:18 437.505
DX 1 28 Jan 11:25:27 11:28:43 20° 281° (W) 11:31:50 434.975-435.025
QB50P1 28 Jan 11:25:35 11:29:46 62° 79° (E) 11:33:58 145.935-145.965
UNISAT 6 28 Jan 11:26:50 11:31:28 64° 259° (W) 11:36:07 437.425
FUNcube-1 28 Jan 11:30:48 11:34:04 21° 281° (W) 11:37:12 145.935
HUMSAT D 28 Jan 11:31:23 11:35:19 41° 281° (W) 11:39:12 437.325/437.525
POLYITAN 1 28 Jan 11:39:19 11:43:35 80° 259° (WSW) 11:47:51 437.675
ESTCUBE 1 28 Jan 11:40:34 11:45:02 61° 102° (ESE) 11:49:34 437.505/2401.250
AISAT 28 Jan 11:42:27 11:46:40 40° 281° (WNW) 11:50:52 437.250
BUGSAT 1 28 Jan 11:44:47 11:48:50 85° 80° (E) 11:52:53 437.445
JUGNU 28 Jan 11:55:41 12:00:27 25° 163° (SSE) 12:05:15 437.505
AIST 1 28 Jan 11:58:55 12:03:13 87° 274° (W) 12:07:27
POPSAT HIP 1 28 Jan 12:00:24 12:04:23 39° 259° (W) 12:08:20 437.405
ANTELSAT 28 Jan 12:03:47 12:07:22 21° 260° (W) 12:10:49 437.575/2403.000
DUCHIFAT 1 28 Jan 12:03:59 12:07:52 35° 259° (W) 12:11:42 145.980
VELOX 1 28 Jan 12:12:44 12:15:43 17° 280° (W) 12:18:29 145.980
TIGRISAT 28 Jan 12:12:53 12:15:58 17° 260° (W) 12:18:48 435.000
SPROUT 28 Jan 12:15:17 12:18:51 26° 101° (E) 12:22:30 437.525
CUBEBUG 1 28 Jan 12:24:06 12:28:09 34° 281° (W) 12:32:10 437.445
GONETS M04 28 Jan 12:30:08 12:32:55 12° 83° (E) 12:36:43
SRMSAT 28 Jan 12:33:34 12:37:22 17° 166° (SSE) 12:41:16 437.500
NANOSAT C BR1 28 Jan 12:40:47 12:42:13 11° 260° (W) 12:43:19 145.865
TISAT 1 28 Jan 12:56:21 13:00:37 77° 280° (W) 13:04:52 437.305
BEESAT 28 Jan 13:04:09 13:04:10 10° 100° (E) 13:04:38 436.000
ITUPSAT 1 28 Jan 13:06:10 13:07:13 11° 100° (E) 13:08:41 437.325
BEESAT 2 28 Jan 13:18:04 13:21:01 20° 67° (ENE) 13:24:02 435.950
BEESAT 3 28 Jan 13:32:44 13:36:30 38° 68° (ENE) 13:40:16 437.485
Oscar 19 28 Jan 13:36:04 13:40:45 35° 78° (ENE) 13:45:30 437.125/150
JUGNU 28 Jan 13:43:50 13:49:39 67° 159° (SSE) 13:55:31 437.505
ITAMSAT 1 28 Jan 13:51:43 13:53:53 13° 79° (E) 13:56:25 435.822/435.867
SPROUT 28 Jan 13:52:50 13:54:51 13° 280° (W) 13:56:34 437.525
SWISSCUBE 28 Jan 14:21:11 14:25:53 59° 282° (WNW) 14:30:38 437.505
GONETS M04 28 Jan 14:21:13 14:29:51 70° 266° (W) 14:38:32
SRMSAT 28 Jan 14:21:27 14:27:00 40° 160° (SSE) 14:32:36 437.500
BEESAT 28 Jan 14:37:29 14:41:57 40° 282° (WNW) 14:46:24 436.000
Gurwin Techsat 1B 28 Jan 14:38:59 14:43:39 33° 79° (ENE) 14:48:24 435.225
ITUPSAT 1 28 Jan 14:40:36 14:45:02 37° 281° (WNW) 14:49:27 437.325
AIST 2 28 Jan 14:44:15 14:48:23 72° 248° (WSW) 14:52:28 435.215
BEESAT 2 28 Jan 14:56:43 14:59:06 15° 246° (WSW) 15:01:17 435.950
AUBIESAT-1 28 Jan 15:03:17 15:03:26 10° 106° (ESE) 15:03:52 437.475
STARS 28 Jan 15:14:35 15:18:48 47° 101° (ESE) 15:23:03 437.465
Oscar 19 28 Jan 15:17:14 15:20:01 14° 259° (W) 15:22:25 437.125/150
KKS-1 28 Jan 15:17:58 15:22:25 87° 282° (WNW) 15:26:54 437.445
ITAMSAT 1 28 Jan 15:28:33 15:33:19 37° 258° (WSW) 15:38:00 435.822/435.867
JUGNU 28 Jan 15:33:09 15:38:44 44° 340° (NNW) 15:44:20 437.505
PCSat 28 Jan 15:35:59 15:40:54 37° 70° (ENE) 15:45:53 145.827
HORYU 2 28 Jan 15:43:55 15:48:16 49° 78° (ENE) 15:52:38 437.375
O/OREOS (USA 219) 28 Jan 15:54:02 15:58:13 41° 105° (ESE) 16:02:27 437.305
RS-15 28 Jan 15:54:25 16:05:35 50° 68° (ENE) 16:17:18 29.354- 29.394
M-CUBED/EXP-1 PRIME 28 Jan 16:00:24 16:03:55 72° 285° (WNW) 16:07:45 437.505
CUSAT 1 28 Jan 16:03:02 16:04:56 13° 76° (ENE) 16:06:52 437.405
SRMSAT 28 Jan 16:10:18 16:16:17 75° 339° (NNW) 16:22:17 437.500
Gurwin Techsat 1B 28 Jan 16:20:16 16:23:32 16° 259° (W) 16:26:29 435.225
AO-7 28 Jan 16:26:24 16:34:33 60° 75° (ENE) 16:42:46 29.400- 29.500
AUBIESAT-1 28 Jan 16:35:19 16:38:12 22° 282° (WNW) 16:41:09 437.475
MOZHAYETS 4 28 Jan 16:49:16 16:52:56 25° 101° (E) 16:56:45
JAS-2 28 Jan 17:08:05 17:14:27 61° 79° (E) 17:20:05 435.910
DANDE 28 Jan 17:08:59 17:13:29 62° 266° (W) 17:16:52 436.750
PCSat 28 Jan 17:21:20 17:24:16 14° 248° (WSW) 17:26:50 145.827
JUGNU 28 Jan 17:24:05 17:28:10 19° 346° (NNW) 17:32:11 437.505
PHONESAT 2.4 28 Jan 17:35:30 17:36:49 12° 40° (NE) 17:38:18 2401.200-2431.200
CUTE-I 28 Jan 17:46:34 17:47:52 11° 79° (E) 17:49:38 437.470
CUSAT 1 28 Jan 17:46:38 17:47:47 11° 269° (W) 17:48:37 437.405
SRMSAT 28 Jan 18:00:32 18:05:40 28° 342° (NNW) 18:10:44 437.500
RS-15 28 Jan 18:07:51 18:18:06 31° 245° (WSW) 18:28:01 29.354- 29.394
VERMONT LUNAR 28 Jan 18:19:06 18:22:38 79° 225° (SW) 18:26:11 437.305
AO-7 28 Jan 18:21:55 18:27:16 17° 256° (WSW) 18:32:00 29.400- 29.500
STRAND 1 28 Jan 18:22:26 18:23:19 11° 101° (E) 18:24:40 437.568
MOZHAYETS 4 28 Jan 18:27:21 18:30:05 15° 280° (W) 18:32:35
CUBESAT XI-V 28 Jan 18:38:28 18:42:23 27° 101° (E) 18:46:27 437.345
YUBILEINY 28 Jan 18:59:11 19:04:30 19° 96° (E) 19:10:26 435.215
Cubesat XI-IV 28 Jan 19:02:17 19:07:36 77° 257° (WSW) 19:12:55 437.490
PRISM 28 Jan 19:07:11 19:11:20 67° 282° (WNW) 19:15:31 437.425
PHONESAT 2.4 28 Jan 19:11:52 19:15:23 45° 222° (SW) 19:18:54 2401.200-2431.200
JUGNU 28 Jan 19:16:49 19:18:06 11° 355° (N) 19:19:20 437.505
CUTE-I 28 Jan 19:22:50 19:27:54 44° 258° (WSW) 19:32:54 437.470
ISS 28 Jan 19:27:22 19:28:34 12° 128° (SE) 19:29:56 145.825
SRMSAT 28 Jan 19:52:31 19:55:31 14° 350° (N) 19:58:25 437.500
STRAND 1 28 Jan 19:57:34 20:02:27 44° 282° (WNW) 20:07:20 437.568
BRITE-PL 28 Jan 20:13:55 20:14:36 10° 78° (ENE) 20:15:43 437.365/2234.400
CUBESAT XI-V 28 Jan 20:17:01 20:19:45 15° 280° (W) 20:22:12 437.345
CANX-2 28 Jan 20:42:35 20:45:39 20° 80° (E) 20:48:51 2200.000
YUBILEINY 28 Jan 20:52:53 21:01:17 52° 274° (W) 21:09:34 435.215
AAUSAT CUBESAT 2 28 Jan 20:58:48 21:01:14 16° 80° (E) 21:03:52 437.432
ISS 28 Jan 21:02:29 21:04:59 20° 306° (NW) 21:07:25 145.825
SO-50 28 Jan 21:03:09 21:06:28 19° 66° (ENE) 21:09:57 436.795
CUTE 1.7 + AOD 2 28 Jan 21:05:59 21:09:59 38° 79° (E) 21:14:00 437.475
JUGNU 28 Jan 21:07:05 21:08:17 11° 5° (N) 21:09:34 437.505
HO-68 28 Jan 21:15:10 21:22:16 65° 76° (ENE) 21:29:20 435.675
SEEDS 28 Jan 21:37:38 21:41:56 87° 258° (WSW) 21:46:12 437.485
CUBEBUG 2 28 Jan 21:41:11 21:44:05 17° 79° (E) 21:47:15 437.445
UKube-1 28 Jan 21:41:28 21:42:51 12° 80° (E) 21:44:34 .
GOMX 1 28 Jan 21:48:21 21:52:50 58° 260° (W) 21:57:37 467.674
BRITE-PL 28 Jan 21:48:51 21:52:58 35° 261° (W) 21:57:18 437.365/2234.400
ZACube-1 28 Jan 21:53:07 21:55:40 16° 80° (E) 21:58:28 437.345
CINEMA 3 28 Jan 21:58:09 22:02:43 60° 78° (ENE) 22:07:30 145.822/145.860
DX 1 28 Jan 21:59:15 22:02:40 23° 79° (E) 22:06:10 434.975-435.025
FUNcube-1 28 Jan 22:04:32 22:07:57 22° 80° (E) 22:11:33 145.935
DOVE 4 28 Jan 22:04:43 22:09:13 53° 260° (W) 22:13:59 437.250
COMPASS 1 28 Jan 22:05:44 22:09:47 41° 259° (W) 22:13:46 437.405
CANX-2 28 Jan 22:18:36 22:21:29 17° 260° (W) 22:24:09 2200.000
AISAT 28 Jan 22:21:00 22:22:54 13° 80° (E) 22:25:05 437.250
UWE-3 28 Jan 22:21:41 22:26:05 51° 78° (ENE) 22:30:35 435.000/436.395/437.385
DELFI C3 28 Jan 22:32:47 22:36:53 67° 259° (WSW) 22:40:57 145.870
AAUSAT CUBESAT 2 28 Jan 22:33:35 22:36:48 20° 260° (W) 22:39:51 437.432
DUCHIFAT 1 28 Jan 22:37:43 22:38:46 11° 100° (E) 22:40:10 145.980
Oscar 11 28 Jan 22:39:53 22:44:02 42° 259° (W) 22:48:08 145.826/435.025
ANTELSAT 28 Jan 22:41:06 22:44:41 26° 101° (E) 22:48:19 437.575/2403.000
SO-50 28 Jan 22:42:59 22:46:56 24° 247° (WSW) 22:50:42 436.795
VELOX 1 28 Jan 22:47:51 22:51:43 31° 79° (E) 22:55:39 145.980
TIGRISAT 28 Jan 22:49:06 22:52:58 33° 101° (E) 22:56:51 435.000
JUGNU 28 Jan 22:54:13 22:58:15 19° 14° (NNE) 23:02:22 437.505
CUBEBUG 1 28 Jan 23:00:33 23:02:36 14° 80° (E) 23:04:57 437.445
HO-68 28 Jan 23:06:53 23:09:56 12° 257° (WSW) 23:12:18 435.675
NANOSAT C BR1 28 Jan 23:09:24 23:13:15 34° 101° (E) 23:17:09 145.865
UKube-1 28 Jan 23:15:12 23:18:56 28° 259° (WSW) 23:22:35 .
CUBEBUG 2 28 Jan 23:17:01 23:20:40 23° 260° (W) 23:24:15 437.445
50 SAT 28 Jan 23:21:03 23:25:10 88° 253° (WSW) 23:29:18 437.505
QB50P2 28 Jan 23:22:53 23:27:05 58° 101° (ESE) 23:31:16 145.880/145.840
ZACube-1 28 Jan 23:28:15 23:31:55 24° 260° (W) 23:35:32 437.345
QB50P1 28 Jan 23:32:26 23:36:42 80° 101° (ESE) 23:40:59 145.935-145.965
SRMSAT 28 Jan 23:33:22 23:36:05 13° 10° (N) 23:38:55 437.500
DX 1 28 Jan 23:36:23 23:38:49 14° 259° (W) 23:40:58 434.975-435.025
HUMSAT D 28 Jan 23:37:21 23:41:18 35° 259° (W) 23:45:14 437.325/437.525
FUNcube-1 28 Jan 23:41:13 23:44:12 17° 260° (W) 23:46:59 145.935
UNISAT 6 28 Jan 23:41:23 23:45:24 38° 281° (WNW) 23:49:21 437.425
POLYITAN 1 28 Jan 23:46:42 23:50:56 61° 281° (W) 23:55:08 437.675
BUGSAT 1 28 Jan 23:48:33 23:52:49 83° 281° (WNW) 23:57:04 437.445
ESTCUBE 1 28 Jan 23:55:12 23:59:43 82° 258° (WSW) 00:04:12 437.505/2401.250
AISAT 28 Jan 23:55:41 23:59:27 26° 259° (W) 00:03:06 437.250
AIST 1 29 Jan 00:05:45 00:10:04 60° 266° (W) 00:14:26
POPSAT HIP 1 29 Jan 00:07:36 00:11:24 31° 281° (W) 00:15:09 437.405
DUCHIFAT 1 29 Jan 00:10:51 00:14:33 28° 281° (W) 00:18:10 145.980
ANTELSAT 29 Jan 00:19:42 00:21:24 12° 280° (W) 00:22:47 437.575/2403.000
SPROUT 29 Jan 00:23:26 00:27:17 34° 79° (E) 00:31:12 437.525
VELOX 1 29 Jan 00:26:56 00:28:14 11° 260° (W) 00:29:10 145.980
CUBEBUG 1 29 Jan 00:35:22 00:38:54 24° 259° (W) 00:42:19 437.445
JUGNU 29 Jan 00:42:03 00:47:43 43° 20° (NNE) 00:53:23 437.505
GONETS M04 29 Jan 00:59:55 01:07:02 29° 95° (E) 01:14:26
TISAT 1 29 Jan 01:02:54 01:07:04 61° 259° (WSW) 01:11:13 437.305
SWISSCUBE 29 Jan 01:08:20 01:10:36 14° 80° (E) 01:13:09 437.505
BEESAT 2 29 Jan 01:14:01 01:17:07 22° 113° (ESE) 01:20:22 435.950
SRMSAT 29 Jan 01:21:01 01:25:58 27° 17° (NNE) 01:30:57 437.500
BEESAT 29 Jan 01:23:11 01:26:35 20° 79° (E) 01:30:09 436.000
ITUPSAT 1 29 Jan 01:26:27 01:30:01 22° 79° (E) 01:33:43 437.325
BEESAT 3 29 Jan 01:28:13 01:32:01 44° 112° (ESE) 01:35:53 437.485
Oscar 19 29 Jan 02:09:23 02:14:30 88° 276° (W) 02:19:38 437.125/150
ITAMSAT 1 29 Jan 02:24:20 02:29:02 36° 102° (ESE) 02:33:50 435.822/435.867
JUGNU 29 Jan 02:30:51 02:36:49 70° 201° (SSW) 02:42:46 437.505
AIST 2 29 Jan 02:43:19 02:47:22 56° 292° (WNW) 02:51:29 435.215
SWISSCUBE 29 Jan 02:44:12 02:48:23 29° 259° (W) 02:52:27 437.505
BEESAT 2 29 Jan 02:53:17 02:55:15 13° 294° (WNW) 02:56:59 435.950
GONETS M04 29 Jan 02:55:49 03:03:46 36° 275° (W) 03:11:25
BEESAT 29 Jan 03:00:44 03:04:20 21° 259° (W) 03:07:45 436.000
ITUPSAT 1 29 Jan 03:04:21 03:07:48 19° 259° (W) 03:11:03 437.325
AUBIESAT-1 29 Jan 03:04:30 03:06:49 15° 78° (ENE) 03:09:19 437.475
SRMSAT 29 Jan 03:09:24 03:15:21 71° 21° (NNE) 03:21:17 437.500
Gurwin Techsat 1B 29 Jan 03:16:51 03:22:10 85° 283° (WNW) 03:27:30 435.225
STARS 29 Jan 03:26:01 03:30:26 70° 79° (E) 03:34:51 437.465
KKS-1 29 Jan 03:30:58 03:35:21 56° 258° (WSW) 03:39:44 437.445
RS-15 29 Jan 03:38:16 03:48:25 41° 114° (ESE) 03:58:30 29.354- 29.394
HORYU 2 29 Jan 03:56:56 04:01:20 76° 102° (ESE) 04:05:46 437.375
M-CUBED/EXP-1 PRIME 29 Jan 04:03:23 04:08:01 68° 255° (WSW) 04:12:18 437.505
O/OREOS (USA 219) 29 Jan 04:04:37 04:09:12 76° 75° (ENE) 04:13:47 437.305
ITAMSAT 1 29 Jan 04:05:38 04:08:27 14° 281° (W) 04:10:55 435.822/435.867
DANDE 29 Jan 04:09:28 04:15:12 35° 93° (E) 04:22:20 436.750
PCSat 29 Jan 04:11:50 04:17:12 69° 289° (WNW) 04:22:34 145.827
JUGNU 29 Jan 04:21:05 04:26:04 27° 197° (SSW) 04:30:57 437.505
